,,PA_Meas_PMT16A,,PR_Meas_QMR101_102,,RH_Meas_QMH101,,SR_Meas_QMS101,,TA_Meas_QMH101,,GenWind,,GenWind,
time,status,PA,status,PR,status,RH,status,SR,status,TA,status,DirAvg,status,SpdAvg,
2011-06-04, 00:00:04,VALID,916.764,VALID,0,VALID,95.8263,VALID,0,VALID,20.4829,VALID,162,VALID,1.30039,
2011-06-04, 00:01:04,VALID,916.77,VALID,0,VALID,95.9254,VALID,0,VALID,20.4634,VALID,162,VALID,1.01406,
2011-06-04, 00:02:04,VALID,916.721,VALID,0,VALID,96.0398,VALID,0,VALID,20.4423,VALID,162,VALID,1.07227,
2011-06-04, 00:03:04,VALID,916.73,VALID,0,VALID,96.116,VALID,0,VALID,20.4439,VALID,162,VALID,0.635547,
2011-06-04, 00:04:04,VALID,916.735,VALID,0,VALID,96.1999,VALID,0,VALID,20.4439,VALID,162,VALID,1.25195,
2011-06-04, 00:05:04,VALID,916.754,VALID,0,VALID,96.2837,VALID,0,VALID,20.4439,VALID,162,VALID,0.809766,
2011-06-04, 00:06:04,VALID,916.782,VALID,0,VALID,96.3142,VALID,0,VALID,20.4033,VALID,162,VALID,0.574609,
2011-06-04, 00:07:04,VALID,916.797,VALID,0,VALID,96.3447,VALID,0,VALID,20.3838,VALID,162,VALID,0.364453,
2011-06-04, 00:08:04,VALID,916.816,VALID,0,VALID,96.3829,VALID,0,VALID,20.3854,VALID,162,VALID,0.344531,
2011-06-04, 00:09:04,VALID,916.831,VALID,0,VALID,96.3905,VALID,0,VALID,20.3659,VALID,162,VALID,0.424609,
2011-06-04, 00:10:04,VALID,916.857,VALID,0,VALID,96.3981,VALID,0,VALID,20.3269,VALID,162,VALID,0.180469,
2011-06-04, 00:11:04,VALID,916.845,VALID,0,VALID,96.4133,VALID,0,VALID,20.3074,VALID,162,VALID,0.558203,
2011-06-04, 00:12:04,VALID,916.831,VALID,0,VALID,96.4667,VALID,0,VALID,20.3074,VALID,161,VALID,0.380859,
2011-06-04, 00:13:04,VALID,916.856,VALID,0,VALID,96.4591,VALID,0,VALID,20.2879,VALID,161,VALID,0.560156,
2011-06-04, 00:14:04,VALID,916.846,VALID,0,VALID,96.4819,VALID,0,VALID,20.2489,VALID,161,VALID,0.405078,
2011-06-04, 00:15:04,VALID,916.84,VALID,0,VALID,96.5353,VALID,0.107441,VALID,20.2473,VALID,161,VALID,0.445703,
2011-06-04, 00:16:04,VALID,916.86,VALID,0,VALID,96.5506,VALID,0.107441,VALID,20.2473,VALID,161,VALID,0.448438,
2011-06-04, 00:17:04,VALID,916.84,VALID,0,VALID,96.6039,VALID,0.107441,VALID,20.2473,VALID,161,VALID,0.398828,
2011-06-04, 00:18:04,VALID,916.833,VALID,0,VALID,96.6573,VALID,0,VALID,20.2473,VALID,161,VALID,0.289844,
2011-06-04, 00:19:04,VALID,916.854,VALID,0,VALID,96.6802,VALID,0.107441,VALID,20.2668,VALID,161,VALID,0.182422,
2011-06-04, 00:20:04,VALID,916.854,VALID,0,VALID,96.703,VALID,0.107441,VALID,20.3058,VALID,161,VALID,0.209375,
2011-06-04, 00:21:04,VALID,916.847,VALID,0,VALID,96.7107,VALID,0,VALID,20.3253,VALID,161,VALID,0.160547,
2011-06-04, 00:22:04,VALID,916.838,VALID,0,VALID,96.7335,VALID,0.107441,VALID,20.3433,VALID,161,VALID,0.0375,
2011-06-04, 00:23:04,VALID,916.821,VALID,0,VALID,96.7411,VALID,0.107441,VALID,20.3643,VALID,161,VALID,0.389062,
2011-06-04, 00:24:04,VALID,916.788,VALID,0,VALID,96.7411,VALID,0,VALID,20.3838,VALID,161,VALID,0.305078,
2011-06-04, 00:25:04,VALID,916.749,VALID,0,VALID,96.7488,VALID,0.107441,VALID,20.3838,VALID,161,VALID,0.558594,
2011-06-04, 00:26:04,VALID,916.694,VALID,0,VALID,96.764,VALID,0.107441,VALID,20.4228,VALID,161,VALID,0.473828,
2011-06-04, 00:27:04,VALID,916.661,VALID,0,VALID,96.7564,VALID,0.107441,VALID,20.4423,VALID,161,VALID,0.412109,
2011-06-04, 00:28:04,VALID,916.674,VALID,0,VALID,96.764,VALID,0,VALID,20.4618,VALID,161,VALID,0.560938,
2011-06-04, 00:29:04,VALID,916.667,VALID,0,VALID,96.7564,VALID,0,VALID,20.4813,VALID,161,VALID,0.541406,
2011-06-04, 00:30:04,VALID,916.687,VALID,0,VALID,96.764,VALID,0,VALID,20.5024,VALID,161,VALID,0.513672,
2011-06-04, 00:31:04,VALID,916.678,VALID,0,VALID,96.7564,VALID,0,VALID,20.5219,VALID,161,VALID,0.508594,
2011-06-04, 00:32:04,VALID,916.694,VALID,0,VALID,96.7488,VALID,0,VALID,20.5414,VALID,161,VALID,0.335938,
2011-06-04, 00:33:04,VALID,916.656,VALID,0,VALID,96.7411,VALID,0,VALID,20.5609,VALID,161,VALID,0.6875,
2011-06-04, 00:34:04,VALID,916.676,VALID,0,VALID,96.7183,VALID,0,VALID,20.5804,VALID,161,VALID,0.532422,
2011-06-04, 00:35:04,VALID,916.684,VALID,0,VALID,96.7107,VALID,0,VALID,20.5999,VALID,161,VALID,0.576172,
2011-06-04, 00:36:04,VALID,916.669,VALID,0,VALID,96.6725,VALID,0,VALID,20.6194,VALID,161,VALID,0.602734,
2011-06-04, 00:37:04,VALID,916.644,VALID,0,VALID,96.6115,VALID,0,VALID,20.6194,VALID,161,VALID,0.674609,
2011-06-04, 00:38:04,VALID,916.637,VALID,0,VALID,96.4896,VALID,0,VALID,20.6194,VALID,161,VALID,0.919531,
2011-06-04, 00:39:04,VALID,916.646,VALID,0,VALID,96.3981,VALID,0,VALID,20.6374,VALID,133,VALID,0.780078,
2011-06-04, 00:40:04,VALID,916.646,VALID,0,VALID,96.2914,VALID,0,VALID,20.6374,VALID,133,VALID,0.834375,
2011-06-04, 00:41:04,VALID,916.659,VALID,0,VALID,96.1846,VALID,0,VALID,20.6585,VALID,133,VALID,0.814062,
2011-06-04, 00:42:04,VALID,916.653,VALID,0,VALID,96.0855,VALID,0,VALID,20.6585,VALID,133,VALID,0.558594,
2011-06-04, 00:43:04,VALID,916.657,VALID,0,VALID,95.9102,VALID,0,VALID,20.6585,VALID,133,VALID,0.634766,
2011-06-04, 00:44:04,VALID,916.648,VALID,0,VALID,95.712,VALID,0,VALID,20.5789,VALID,133,VALID,0.586328,
2011-06-04, 00:45:04,VALID,916.641,VALID,0,VALID,95.5367,VALID,0,VALID,20.5399,VALID,133,VALID,0.740625,
2011-06-04, 00:46:04,VALID,916.628,VALID,0,VALID,95.59,VALID,0,VALID,20.5414,VALID,133,VALID,0.8125,
2011-06-04, 00:47:04,VALID,916.617,VALID,0,VALID,95.6739,VALID,0,VALID,20.5219,VALID,133,VALID,0.797266,
2011-06-04, 00:48:04,VALID,916.629,VALID,0,VALID,95.712,VALID,0,VALID,20.4829,VALID,133,VALID,0.527734,
2011-06-04, 00:49:04,VALID,916.646,VALID,0,VALID,95.7425,VALID,0,VALID,20.4634,VALID,133,VALID,0.491406,
2011-06-04, 00:50:04,VALID,916.644,VALID,0,VALID,95.8492,VALID,0,VALID,20.4439,VALID,133,VALID,0.744531,
2011-06-04, 00:51:04,VALID,916.669,VALID,0,VALID,95.895,VALID,0,VALID,20.3838,VALID,135,VALID,0.789453,
2011-06-04, 00:52:04,VALID,916.656,VALID,0,VALID,95.9483,VALID,0,VALID,20.3854,VALID,149,VALID,0.416016,
2011-06-04, 00:53:04,VALID,916.667,VALID,0,VALID,96.0169,VALID,0,VALID,20.3464,VALID,149,VALID,0.798437,
2011-06-04, 00:54:04,VALID,916.616,VALID,0,VALID,96.0779,VALID,0,VALID,20.3058,VALID,135,VALID,0.458203,
2011-06-04, 00:55:04,VALID,916.605,VALID,0,VALID,96.177,VALID,0,VALID,20.3253,VALID,130,VALID,0.8375,
2011-06-04, 00:56:04,VALID,916.59,VALID,0,VALID,96.238,VALID,0,VALID,20.3269,VALID,148,VALID,0.995313,
2011-06-04, 00:57:04,VALID,916.514,VALID,0,VALID,96.3142,VALID,0,VALID,20.3269,VALID,152,VALID,1.10352,
2011-06-04, 00:58:04,VALID,916.499,VALID,0,VALID,96.3829,VALID,0,VALID,20.3269,VALID,152,VALID,0.906641,
2011-06-04, 00:59:04,VALID,916.464,VALID,0,VALID,96.4286,VALID,0,VALID,20.3464,VALID,152,VALID,1.19727,
2011-06-04, 01:00:04,VALID,916.404,VALID,0,VALID,96.4743,VALID,0,VALID,20.3464,VALID,152,VALID,1.03594,
2011-06-04, 01:01:04,VALID,916.397,VALID,0,VALID,96.5048,VALID,0,VALID,20.3269,VALID,152,VALID,0.562109,
2011-06-04, 01:02:04,VALID,916.365,VALID,0,VALID,96.5201,VALID,0,VALID,20.3464,VALID,151,VALID,0.705859,
2011-06-04, 01:03:04,VALID,916.329,VALID,0,VALID,96.5811,VALID,0,VALID,20.3659,VALID,152,VALID,0.738672,
2011-06-04, 01:04:04,VALID,916.298,VALID,0,VALID,96.5734,VALID,0,VALID,20.3464,VALID,122,VALID,0.608203,
2011-06-04, 01:05:04,VALID,916.309,VALID,0,VALID,96.5429,VALID,0,VALID,20.3074,VALID,123,VALID,0.712109,
2011-06-04, 01:06:04,VALID,916.296,VALID,0,VALID,96.5506,VALID,0,VALID,20.2879,VALID,123,VALID,0.675,
2011-06-04, 01:07:04,VALID,916.28,VALID,0,VALID,96.5658,VALID,0,VALID,20.2879,VALID,123,VALID,0.599609,
2011-06-04, 01:08:04,VALID,916.27,VALID,0,VALID,96.5734,VALID,0,VALID,20.2684,VALID,123,VALID,0.697266,
2011-06-04, 01:09:04,VALID,916.285,VALID,0,VALID,96.6192,VALID,0,VALID,20.2489,VALID,123,VALID,0.483984,
2011-06-04, 01:10:04,VALID,916.267,VALID,0,VALID,96.6802,VALID,0,VALID,20.2879,VALID,123,VALID,0.454688,
2011-06-04, 01:11:04,VALID,916.258,VALID,0,VALID,96.6649,VALID,0,VALID,20.3074,VALID,123,VALID,0.600781,
2011-06-04, 01:12:04,VALID,916.273,VALID,0,VALID,96.6878,VALID,0,VALID,20.2863,VALID,123,VALID,0.694531,
2011-06-04, 01:13:04,VALID,916.318,VALID,0,VALID,96.6497,VALID,0,VALID,20.3074,VALID,123,VALID,0.587109,
2011-06-04, 01:14:04,VALID,916.346,VALID,0,VALID,96.6039,VALID,0,VALID,20.2684,VALID,123,VALID,0.795703,
2011-06-04, 01:15:04,VALID,916.37,VALID,0,VALID,96.6039,VALID,0,VALID,20.2489,VALID,123,VALID,0.742578,
2011-06-04, 01:16:04,VALID,916.402,VALID,0,VALID,96.6344,VALID,0,VALID,20.2684,VALID,123,VALID,0.888281,
2011-06-04, 01:17:04,VALID,916.369,VALID,0,VALID,96.6497,VALID,0,VALID,20.2684,VALID,123,VALID,1.03906,
2011-06-04, 01:18:04,VALID,916.367,VALID,0,VALID,96.6268,VALID,0,VALID,20.2684,VALID,123,VALID,0.908594,
2011-06-04, 01:19:04,VALID,916.359,VALID,0,VALID,96.6192,VALID,0,VALID,20.2668,VALID,123,VALID,0.967578,
2011-06-04, 01:20:04,VALID,916.321,VALID,0,VALID,96.6344,VALID,0,VALID,20.3074,VALID,128,VALID,1.01406,
2011-06-04, 01:21:04,VALID,916.301,VALID,0,VALID,96.5658,VALID,0,VALID,20.3269,VALID,146,VALID,0.799219,
2011-06-04, 01:22:04,VALID,916.281,VALID,0,VALID,96.5277,VALID,0,VALID,20.3269,VALID,146,VALID,0.574609,
2011-06-04, 01:23:04,VALID,916.263,VALID,0,VALID,96.4591,VALID,0,VALID,20.3074,VALID,146,VALID,0.738281,
2011-06-04, 01:24:04,VALID,916.266,VALID,0,VALID,96.4438,VALID,0,VALID,20.3269,VALID,146,VALID,0.696484,
2011-06-04, 01:25:04,VALID,916.269,VALID,0,VALID,96.4438,VALID,0,VALID,20.3058,VALID,146,VALID,0.838281,
2011-06-04, 01:26:04,VALID,916.284,VALID,0,VALID,96.3981,VALID,0,VALID,20.3058,VALID,146,VALID,0.455469,
2011-06-04, 01:27:04,VALID,916.272,VALID,0,VALID,96.3905,VALID,0,VALID,20.3269,VALID,146,VALID,0.758984,
2011-06-04, 01:28:04,VALID,916.255,VALID,0,VALID,96.3829,VALID,0,VALID,20.3464,VALID,146,VALID,0.701953,
2011-06-04, 01:29:04,VALID,916.241,VALID,0,VALID,96.3447,VALID,0,VALID,20.2863,VALID,146,VALID,0.536719,
2011-06-04, 01:30:04,VALID,916.252,VALID,0,VALID,96.2837,VALID,0,VALID,20.3074,VALID,146,VALID,0.505859,
2011-06-04, 01:31:04,VALID,916.244,VALID,0,VALID,96.2685,VALID,0,VALID,20.3074,VALID,146,VALID,0.489062,
2011-06-04, 01:32:04,VALID,916.245,VALID,0,VALID,96.1465,VALID,0,VALID,20.2684,VALID,146,VALID,0.430469,
2011-06-04, 01:33:04,VALID,916.201,VALID,0,VALID,96.238,VALID,0,VALID,20.3074,VALID,146,VALID,0.442187,
2011-06-04, 01:34:04,VALID,916.235,VALID,0,VALID,96.2685,VALID,0,VALID,20.3269,VALID,146,VALID,0.560938,
2011-06-04, 01:35:04,VALID,916.205,VALID,0,VALID,96.2456,VALID,0,VALID,20.3269,VALID,146,VALID,0.778906,
2011-06-04, 01:36:04,VALID,916.229,VALID,0,VALID,96.2304,VALID,0,VALID,20.3464,VALID,145,VALID,0.848437,
2011-06-04, 01:37:04,VALID,916.264,VALID,0,VALID,96.1541,VALID,0,VALID,20.3464,VALID,145,VALID,0.660937,
2011-06-04, 01:38:04,VALID,916.286,VALID,0,VALID,96.1008,VALID,0,VALID,20.3464,VALID,145,VALID,0.753125,
2011-06-04, 01:39:04,VALID,916.276,VALID,0,VALID,96.0779,VALID,0,VALID,20.3659,VALID,145,VALID,0.991406,
2011-06-04, 01:40:04,VALID,916.332,VALID,0,VALID,95.9941,VALID,0,VALID,20.3659,VALID,145,VALID,0.964453,
2011-06-04, 01:41:04,VALID,916.348,VALID,0,VALID,95.8797,VALID,0,VALID,20.3269,VALID,144,VALID,0.672266,
2011-06-04, 01:42:04,VALID,916.344,VALID,0,VALID,95.7272,VALID,0,VALID,20.2879,VALID,145,VALID,0.517187,
2011-06-04, 01:43:04,VALID,916.332,VALID,0,VALID,95.6129,VALID,0,VALID,20.2489,VALID,145,VALID,0.453125,
2011-06-04, 01:44:04,VALID,916.308,VALID,0,VALID,95.4833,VALID,0,VALID,20.1498,VALID,145,VALID,0.469922,
2011-06-04, 01:45:04,VALID,916.289,VALID,0,VALID,95.4452,VALID,0,VALID,20.1318,VALID,145,VALID,0.551562,
2011-06-04, 01:46:04,VALID,916.311,VALID,0,VALID,95.4909,VALID,0,VALID,20.0913,VALID,145,VALID,0.591797,
2011-06-04, 01:47:04,VALID,916.255,VALID,0,VALID,95.7044,VALID,0,VALID,20.1123,VALID,145,VALID,0.452734,
2011-06-04, 01:48:04,VALID,916.278,VALID,0,VALID,95.895,VALID,0,VALID,20.1318,VALID,144,VALID,0.382813,
2011-06-04, 01:49:04,VALID,916.229,VALID,0,VALID,96.0169,VALID,0,VALID,20.1513,VALID,145,VALID,0.298047,
2011-06-04, 01:50:04,VALID,916.247,VALID,0,VALID,96.0703,VALID,0,VALID,20.1498,VALID,144,VALID,0.394531,
2011-06-04, 01:51:04,VALID,916.249,VALID,0,VALID,96.1084,VALID,0,VALID,20.1498,VALID,145,VALID,0.430078,
2011-06-04, 01:52:04,VALID,916.206,VALID,0,VALID,96.1389,VALID,0,VALID,20.1708,VALID,145,VALID,0.574609,
2011-06-04, 01:53:04,VALID,916.186,VALID,0,VALID,96.1846,VALID,0,VALID,20.1903,VALID,145,VALID,0.626562,
2011-06-04, 01:54:04,VALID,916.156,VALID,0,VALID,96.2533,VALID,0,VALID,20.2278,VALID,144,VALID,0.617188,
2011-06-04, 01:55:04,VALID,916.146,VALID,0,VALID,96.2533,VALID,0,VALID,20.2489,VALID,144,VALID,0.625,
2011-06-04, 01:56:04,VALID,916.097,VALID,0,VALID,96.2304,VALID,0,VALID,20.2489,VALID,144,VALID,0.468359,
2011-06-04, 01:57:04,VALID,916.071,VALID,0,VALID,96.1465,VALID,0,VALID,20.2098,VALID,145,VALID,0.543359,
2011-06-04, 01:58:04,VALID,916.021,VALID,0,VALID,96.1008,VALID,0,VALID,20.1708,VALID,145,VALID,0.461328,
2011-06-04, 01:59:04,VALID,915.996,VALID,0,VALID,96.1084,VALID,0,VALID,20.1708,VALID,145,VALID,0.619922,
2011-06-04, 02:00:04,VALID,915.918,VALID,0,VALID,96.1618,VALID,0,VALID,20.1303,VALID,145,VALID,0.728125,
2011-06-04, 02:01:04,VALID,915.894,VALID,0,VALID,96.2304,VALID,0,VALID,20.1708,VALID,145,VALID,0.905859,
2011-06-04, 02:02:04,VALID,915.868,VALID,0,VALID,96.299,VALID,0,VALID,20.1693,VALID,144,VALID,1.0375,
2011-06-04, 02:03:04,VALID,915.882,VALID,0,VALID,96.2914,VALID,0,VALID,20.1903,VALID,144,VALID,0.961719,
2011-06-04, 02:04:04,VALID,915.873,VALID,0,VALID,96.2837,VALID,0,VALID,20.1708,VALID,144,VALID,0.910156,
2011-06-04, 02:05:04,VALID,915.871,VALID,0,VALID,96.2837,VALID,0,VALID,20.1513,VALID,134,VALID,0.733594,
2011-06-04, 02:06:04,VALID,915.88,VALID,0,VALID,96.2914,VALID,0,VALID,20.1708,VALID,134,VALID,0.759375,
2011-06-04, 02:07:04,VALID,915.858,VALID,0,VALID,96.3066,VALID,0,VALID,20.1708,VALID,134,VALID,0.882031,
2011-06-04, 02:08:04,VALID,915.845,VALID,0,VALID,96.3829,VALID,0,VALID,20.1708,VALID,134,VALID,1.1418,
2011-06-04, 02:09:04,VALID,915.837,VALID,0,VALID,96.3905,VALID,0,VALID,20.2293,VALID,134,VALID,1.0207,
2011-06-04, 02:10:04,VALID,915.836,VALID,0,VALID,96.4057,VALID,0,VALID,20.2293,VALID,134,VALID,0.742969,
2011-06-04, 02:11:04,VALID,915.847,VALID,0,VALID,96.3447,VALID,0,VALID,20.2293,VALID,134,VALID,0.767969,
2011-06-04, 02:12:04,VALID,915.793,VALID,0,VALID,96.3371,VALID,0,VALID,20.2098,VALID,145,VALID,0.573828,
2011-06-04, 02:13:04,VALID,915.798,VALID,0,VALID,96.2456,VALID,0,VALID,20.1513,VALID,145,VALID,0.468359,
2011-06-04, 02:14:04,VALID,915.753,VALID,0,VALID,96.3066,VALID,0,VALID,20.1318,VALID,145,VALID,0.787891,
2011-06-04, 02:15:04,VALID,915.747,VALID,0,VALID,96.3219,VALID,0,VALID,20.1318,VALID,145,VALID,0.935938,
2011-06-04, 02:16:04,VALID,915.747,VALID,0,VALID,96.3447,VALID,0,VALID,20.0538,VALID,145,VALID,0.635938,
2011-06-04, 02:17:04,VALID,915.702,VALID,0,VALID,96.3905,VALID,0,VALID,20.0733,VALID,145,VALID,0.74375,
2011-06-04, 02:18:04,VALID,915.713,VALID,0,VALID,96.4515,VALID,0,VALID,20.0928,VALID,145,VALID,0.612891,
2011-06-04, 02:19:04,VALID,915.711,VALID,0,VALID,96.5429,VALID,0,VALID,20.0718,VALID,145,VALID,0.486328,
2011-06-04, 02:20:04,VALID,915.687,VALID,0,VALID,96.5429,VALID,0,VALID,20.0733,VALID,145,VALID,0.292969,
2011-06-04, 02:21:04,VALID,915.674,VALID,0,VALID,96.5506,VALID,0,VALID,20.0523,VALID,145,VALID,0.321094,
2011-06-04, 02:22:04,VALID,915.65,VALID,0,VALID,96.5277,VALID,0,VALID,20.0133,VALID,145,VALID,0.188281,
2011-06-04, 02:23:04,VALID,915.682,VALID,0,VALID,96.5277,VALID,0,VALID,20.0133,VALID,145,VALID,0.312109,
2011-06-04, 02:24:04,VALID,915.671,VALID,0,VALID,96.5582,VALID,0,VALID,20.0148,VALID,145,VALID,0,
2011-06-04, 02:25:04,VALID,915.68,VALID,0,VALID,96.5734,VALID,0,VALID,19.9953,VALID,145,VALID,0,
2011-06-04, 02:26:04,VALID,915.685,VALID,0,VALID,96.6192,VALID,0,VALID,19.9938,VALID,145,VALID,0,
2011-06-04, 02:27:04,VALID,915.688,VALID,0,VALID,96.6192,VALID,0,VALID,19.9953,VALID,145,VALID,0,
2011-06-04, 02:28:04,VALID,915.681,VALID,0,VALID,96.642,VALID,0,VALID,19.9953,VALID,145,VALID,0,
2011-06-04, 02:29:04,VALID,915.666,VALID,0,VALID,96.6573,VALID,0,VALID,19.9953,VALID,145,VALID,0,
2011-06-04, 02:30:04,VALID,915.663,VALID,0,VALID,96.7183,VALID,0,VALID,20.0343,VALID,145,VALID,0.653516,
2011-06-04, 02:31:04,VALID,915.662,VALID,0,VALID,96.7488,VALID,0,VALID,20.0928,VALID,145,VALID,1.08867,
2011-06-04, 02:32:04,VALID,915.608,VALID,0,VALID,96.7564,VALID,0,VALID,20.0928,VALID,145,VALID,1.13047,
2011-06-04, 02:33:04,VALID,915.574,VALID,0,VALID,96.7716,VALID,0,VALID,20.1123,VALID,145,VALID,1.00977,
2011-06-04, 02:34:04,VALID,915.522,VALID,0,VALID,96.8021,VALID,0,VALID,20.1888,VALID,144,VALID,1.17891,
2011-06-04, 02:35:04,VALID,915.502,VALID,0,VALID,96.7945,VALID,0,VALID,20.2293,VALID,144,VALID,1.09766,
2011-06-04, 02:36:04,VALID,915.45,VALID,0,VALID,96.7869,VALID,0,VALID,20.2473,VALID,102,VALID,1.30195,
2011-06-04, 02:37:04,VALID,915.387,VALID,0,VALID,96.7488,VALID,0,VALID,20.2879,VALID,97,VALID,0.951953,
2011-06-04, 02:38:04,VALID,915.349,VALID,0,VALID,96.7259,VALID,0,VALID,20.3074,VALID,97,VALID,0.957812,
2011-06-04, 02:39:04,VALID,915.317,VALID,0,VALID,96.6954,VALID,0,VALID,20.2863,VALID,96,VALID,0.560156,
2011-06-04, 02:40:04,VALID,915.308,VALID,0,VALID,96.5201,VALID,0,VALID,20.2684,VALID,97,VALID,0.476953,
2011-06-04, 02:41:04,VALID,915.284,VALID,0,VALID,96.4972,VALID,0,VALID,20.2473,VALID,96,VALID,0.309375,
2011-06-04, 02:42:04,VALID,915.245,VALID,0,VALID,96.4438,VALID,0,VALID,20.2684,VALID,96,VALID,0,
2011-06-04, 02:43:04,VALID,915.259,VALID,0,VALID,96.4133,VALID,0,VALID,20.2278,VALID,97,VALID,0,
2011-06-04, 02:44:04,VALID,915.302,VALID,0,VALID,96.3371,VALID,0,VALID,20.2278,VALID,97,VALID,0,
2011-06-04, 02:45:04,VALID,915.296,VALID,0,VALID,96.2456,VALID,0,VALID,20.2098,VALID,96,VALID,0,
2011-06-04, 02:46:04,VALID,915.289,VALID,0,VALID,96.2075,VALID,0,VALID,20.2098,VALID,96,VALID,0,
2011-06-04, 02:47:04,VALID,915.331,VALID,0,VALID,96.1541,VALID,0,VALID,20.1708,VALID,96,VALID,0,
2011-06-04, 02:48:04,VALID,915.287,VALID,0,VALID,96.299,VALID,0,VALID,20.1888,VALID,97,VALID,0.705859,
2011-06-04, 02:49:04,VALID,915.285,VALID,0,VALID,96.4286,VALID,0,VALID,20.2473,VALID,97,VALID,0.818359,
2011-06-04, 02:50:04,VALID,915.267,VALID,0,VALID,96.4286,VALID,0,VALID,20.3074,VALID,96,VALID,0.951172,
2011-06-04, 02:51:04,VALID,915.247,VALID,0,VALID,96.4133,VALID,0,VALID,20.3058,VALID,97,VALID,1.12812,
2011-06-04, 02:52:04,VALID,915.242,VALID,0,VALID,96.3447,VALID,0,VALID,20.3058,VALID,97,VALID,0.933594,
2011-06-04, 02:53:04,VALID,915.232,VALID,0,VALID,96.2761,VALID,0,VALID,20.3269,VALID,97,VALID,0.7375,
2011-06-04, 02:54:04,VALID,915.213,VALID,0,VALID,96.238,VALID,0,VALID,20.3058,VALID,97,VALID,0.803516,
2011-06-04, 02:55:04,VALID,915.214,VALID,0,VALID,96.2151,VALID,0,VALID,20.2863,VALID,97,VALID,0.919922,
2011-06-04, 02:56:04,VALID,915.193,VALID,0,VALID,96.2609,VALID,0,VALID,20.3074,VALID,97,VALID,0.835156,
2011-06-04, 02:57:04,VALID,915.184,VALID,0,VALID,96.2685,VALID,0,VALID,20.2863,VALID,97,VALID,0.788672,
2011-06-04, 02:58:04,VALID,915.206,VALID,0,VALID,96.2761,VALID,0,VALID,20.2473,VALID,97,VALID,0.754687,
2011-06-04, 02:59:04,VALID,915.219,VALID,0,VALID,96.1923,VALID,0,VALID,20.2278,VALID,97,VALID,0.357422,
2011-06-04, 03:00:04,VALID,915.235,VALID,0,VALID,95.9941,VALID,0,VALID,20.1903,VALID,97,VALID,0.56875,
2011-06-04, 03:01:04,VALID,915.243,VALID,0,VALID,95.7044,VALID,0,VALID,20.0343,VALID,97,VALID,0.600391,
2011-06-04, 03:02:04,VALID,915.278,VALID,0,VALID,95.6815,VALID,0,VALID,19.9953,VALID,98,VALID,0.560547,
2011-06-04, 03:03:04,VALID,915.313,VALID,0,VALID,95.8416,VALID,0,VALID,19.9548,VALID,97,VALID,0.461719,
2011-06-04, 03:04:04,VALID,915.324,VALID,0,VALID,96.055,VALID,0,VALID,20.0358,VALID,97,VALID,0.291016,
2011-06-04, 03:05:04,VALID,915.357,VALID,0,VALID,96.116,VALID,0,VALID,20.0148,VALID,97,VALID,0.355078,
2011-06-04, 03:06:04,VALID,915.348,VALID,0,VALID,96.238,VALID,0,VALID,20.0343,VALID,96,VALID,0.554297,
2011-06-04, 03:07:04,VALID,915.358,VALID,0,VALID,96.3676,VALID,0,VALID,20.0928,VALID,97,VALID,0.475781,
2011-06-04, 03:08:04,VALID,915.36,VALID,0,VALID,96.3905,VALID,0,VALID,20.0928,VALID,97,VALID,0.525391,
2011-06-04, 03:09:04,VALID,915.359,VALID,0,VALID,96.4057,VALID,0,VALID,20.0718,VALID,97,VALID,0.508984,
2011-06-04, 03:10:04,VALID,915.348,VALID,0,VALID,96.4133,VALID,0,VALID,20.0928,VALID,97,VALID,0.528125,
2011-06-04, 03:11:04,VALID,915.374,VALID,0,VALID,96.4133,VALID,0,VALID,20.0928,VALID,97,VALID,0.678906,
2011-06-04, 03:12:04,VALID,915.406,VALID,0,VALID,96.4362,VALID,0,VALID,20.1123,VALID,97,VALID,0.730859,
2011-06-04, 03:13:04,VALID,915.416,VALID,0,VALID,96.4286,VALID,0,VALID,20.1108,VALID,144,VALID,0.865234,
2011-06-04, 03:14:04,VALID,915.401,VALID,0,VALID,96.4515,VALID,0,VALID,20.1318,VALID,153,VALID,0.718359,
2011-06-04, 03:15:04,VALID,915.414,VALID,0,VALID,96.4286,VALID,0,VALID,20.1513,VALID,154,VALID,0.649609,
2011-06-04, 03:16:04,VALID,915.404,VALID,0,VALID,96.3981,VALID,0,VALID,20.1318,VALID,153,VALID,0.719141,
2011-06-04, 03:17:04,VALID,915.426,VALID,0,VALID,96.3447,VALID,0,VALID,20.1123,VALID,153,VALID,0.515234,
2011-06-04, 03:18:04,VALID,915.4,VALID,0,VALID,96.36,VALID,0,VALID,20.1123,VALID,154,VALID,0.542969,
2011-06-04, 03:19:04,VALID,915.43,VALID,0,VALID,96.421,VALID,0,VALID,20.1513,VALID,153,VALID,0.557422,
2011-06-04, 03:20:04,VALID,915.441,VALID,0,VALID,96.4057,VALID,0,VALID,20.1708,VALID,153,VALID,0.465625,
2011-06-04, 03:21:04,VALID,915.439,VALID,0,VALID,96.421,VALID,0,VALID,20.1513,VALID,153,VALID,0.565234,
2011-06-04, 03:22:04,VALID,915.44,VALID,0,VALID,96.3981,VALID,0,VALID,20.1303,VALID,153,VALID,0.309375,
2011-06-04, 03:23:04,VALID,915.451,VALID,0,VALID,96.4286,VALID,0,VALID,20.1513,VALID,153,VALID,0.677734,
2011-06-04, 03:24:04,VALID,915.441,VALID,0,VALID,96.4743,VALID,0,VALID,20.1303,VALID,154,VALID,0.65,
2011-06-04, 03:25:04,VALID,915.441,VALID,0,VALID,96.4743,VALID,0,VALID,20.1513,VALID,153,VALID,0.521875,
2011-06-04, 03:26:04,VALID,915.457,VALID,0,VALID,96.4667,VALID,0,VALID,20.1513,VALID,154,VALID,0.30625,
2011-06-04, 03:27:04,VALID,915.451,VALID,0,VALID,96.4743,VALID,0,VALID,20.1513,VALID,154,VALID,0.296484,
2011-06-04, 03:28:04,VALID,915.412,VALID,0,VALID,96.421,VALID,0,VALID,20.1318,VALID,153,VALID,0.353906,
2011-06-04, 03:29:04,VALID,915.393,VALID,0,VALID,96.3219,VALID,0,VALID,20.0733,VALID,154,VALID,0.155469,
2011-06-04, 03:30:04,VALID,915.37,VALID,0,VALID,96.299,VALID,0,VALID,20.0133,VALID,154,VALID,0.33125,
2011-06-04, 03:31:04,VALID,915.36,VALID,0,VALID,96.3219,VALID,0,VALID,20.0148,VALID,153,VALID,0.428125,
2011-06-04, 03:32:04,VALID,915.353,VALID,0,VALID,96.36,VALID,0,VALID,19.9758,VALID,153,VALID,0.685547,
2011-06-04, 03:33:04,VALID,915.334,VALID,0,VALID,96.4515,VALID,0,VALID,19.9953,VALID,153,VALID,0.731641,
2011-06-04, 03:34:04,VALID,915.344,VALID,0,VALID,96.4819,VALID,0,VALID,19.9953,VALID,153,VALID,0.669531,
2011-06-04, 03:35:04,VALID,915.332,VALID,0,VALID,96.5201,VALID,0,VALID,19.9758,VALID,153,VALID,0.397656,
2011-06-04, 03:36:04,VALID,915.302,VALID,0,VALID,96.5887,VALID,0,VALID,20.0148,VALID,153,VALID,0.110937,
2011-06-04, 03:37:04,VALID,915.272,VALID,0,VALID,96.6344,VALID,0,VALID,20.0343,VALID,153,VALID,0,
2011-06-04, 03:38:04,VALID,915.246,VALID,0,VALID,96.6268,VALID,0,VALID,20.0343,VALID,154,VALID,0,
2011-06-04, 03:39:04,VALID,915.234,VALID,0,VALID,96.6802,VALID,0,VALID,20.0733,VALID,153,VALID,0,
2011-06-04, 03:40:04,VALID,915.208,VALID,0,VALID,96.6954,VALID,0,VALID,20.1139,VALID,153,VALID,0,
2011-06-04, 03:41:04,VALID,915.202,VALID,0,VALID,96.6802,VALID,0,VALID,20.1123,VALID,154,VALID,0,
2011-06-04, 03:42:04,VALID,915.231,VALID,0,VALID,96.5277,VALID,0,VALID,20.0749,VALID,154,VALID,0,
2011-06-04, 03:43:04,VALID,915.201,VALID,0,VALID,96.421,VALID,0,VALID,19.9953,VALID,153,VALID,0,
2011-06-04, 03:44:04,VALID,915.2,VALID,0,VALID,96.5353,VALID,0,VALID,19.9953,VALID,153,VALID,0,
2011-06-04, 03:45:04,VALID,915.227,VALID,0,VALID,96.5124,VALID,0,VALID,20.0163,VALID,153,VALID,0,